User: anonymous   Login
Location: Langangen
(59.1000°N, 9.8000°E)
Time: 02:18:28
(UTC+02:00)
Language:

Iridium 60 - Orbit

View from above orbital plane
View from above orbital plane
View from above satellite
View from above satellite

Ground track
Ground track

The orbit data is extracted from the following two-line orbital elements,

1 25276U 98019E   14298.16759958  .00000539  00000-0  18544-3 0   200
2 25276 086.3950 330.8260 0002265 107.8926 252.2517 14.34220056867603
Epoch (UTC): 25 October 2014 04:01:20
Eccentricity: 0.0002265
inclination: 86.3950°
perigee height: 776 km
apogee height: 779 km
right ascension of ascending node: 330.8260°
argument of perigee: 107.8926°
revolutions per day: 14.34220056
mean anomaly at epoch: 252.2517°
orbit number at epoch: 86760

The dashed part of the orbit path shows where the satellite is in the earth's shadow,  

DLR